This demonstration page uses our WeatherBlox Daily Observations layout. Learn more.

Left ArrowRight Arrow

39.01783, -85.05884

Hourly Observations for March 21, 2015

Temp ( °F °C ) Dew Point ( °F °C ) Humidity (%) Winds ( mph kmh ) Pressure ( in mb ) Visibility ( mi km ) Precip ( " mm )
12:52 am 00:52 Cloudy 46 7.8 39 3.9 77 77 SW 5 7 30.12 1020 9 14 0.00 0.00
1:52 am 01:52 Cloudy 45 7.2 39 3.9 80 80 WSW 6 9 30.13 1020 9 14 0.00 0.00
2:25 am 02:25 Cloudy 45 7 39 4 81 81 WSW 5 7 30.15 1021 10 16 0.00 0.00
2:52 am 02:52 Cloudy 45 7.2 38 3.3 77 77 W 5 7 30.13 1020 10 16 0.00 0.00
3:52 am 03:52 Cloudy 45 7.2 38 3.3 77 77 WSW 5 7 30.12 1020 10 16 0.00 0.00
4:52 am 04:52 Cloudy 45 7.2 38 3.3 77 77 WSW 3 6 30.11 1020 10 16 0.00 0.00
5:52 am 05:52 Cloudy 44 6.7 38 3.3 79 79 SW 6 9 30.11 1020 10 16 0.00 0.00
6:36 am 06:36 Partly Cloudy 43 6 37 3 81 81 SSW 6 9 30.12 1020 10 16 0.00 0.00
6:52 am 06:52 Mostly Cloudy 42 5.6 37 2.8 82 82 SW 7 11 30.10 1019 10 16 0.00 0.00
7:52 am 07:52 Cloudy with Haze 43 6.1 38 3.3 82 82 SW 9 15 30.11 1020 6 10 0.00 0.00
8:52 am 08:52 Mostly Cloudy with Haze 45 7.2 39 3.9 80 80 SW 10 17 30.13 1020 6 10 0.00 0.00
9:52 am 09:52 Partly Cloudy 47 8.3 39 3.9 74 74 SW 12 19 30.13 1020 7 11 0.00 0.00
10:52 am 10:52 Partly Cloudy 51 10.6 40 4.4 66 66 SW 10 17 30.13 1020 9 14 0.00 0.00
11:52 am 11:52 Partly Cloudy 53 11.7 41 5 64 64 SSW 7 11 30.12 1020 10 16 0.00 0.00
12:52 pm 12:52 Mostly Cloudy 57 13.9 41 5 55 55 S 10 17 30.10 1019 10 16 0.00 0.00
1:52 pm 13:52 Mostly Cloudy 61 16.1 40 4.4 46 46 SW 9 15 30.09 1019 10 16 0.00 0.00
2:52 pm 14:52 Mostly Cloudy 64 17.8 41 5 43 43 WSW 15 24 30.07 1018 10 16 0.00 0.00
3:52 pm 15:52 Mostly Cloudy 66 18.9 41 5 40 40 WNW 14 22 30.04 1017 10 16 0.00 0.00
4:52 pm 16:52 Mostly Cloudy 66 18.9 41 5 40 40 W 15 24 30.02 1017 10 16 0.00 0.00
5:52 pm 17:52 Mostly Cloudy 66 18.9 40 4.4 39 39 NW 13 20 30.02 1017 10 16 0.00 0.00
6:52 pm 18:52 Mostly Cloudy 64 17.8 37 2.8 37 37 NNW 16 26 30.04 1017 10 16 0.00 0.00
7:52 pm 19:52 Mostly Cloudy 59 15 37 2.8 44 44 N 14 22 30.07 1018 10 16 0.00 0.00
8:52 pm 20:52 Mostly Cloudy 55 12.8 38 3.3 53 53 N 10 17 30.10 1019 10 16 0.00 0.00
9:52 pm 21:52 Mostly Cloudy 52 11.1 40 4.4 64 64 NNE 15 24 30.12 1020 10 16 0.00 0.00
10:52 pm 22:52 Clear 49 9.4 37 2.8 64 64 N 9 15 30.14 1021 10 16 0.00 0.00
11:52 pm 23:52 Mostly Cloudy 49 9.4 37 2.8 64 64 NNE 14 22 30.14 1021 9 14 0.00 0.00

Powered by AerisWeather